This demonstration page uses our WeatherBlox Daily Observations layout. Learn more.

Left ArrowRight Arrow

30.21309, -93.2044

Hourly Observations for April 26, 2022

Temp ( °F °C ) Dew Point ( °F °C ) Humidity (%) Winds ( mph kmh ) Pressure ( in mb ) Visibility ( mi km ) Precip ( " mm )
12:15 am 00:15 Partly Cloudy 65 18.6 62 16.9 90 90 ENE 5 7 30.12 1020 10 16 0.00 0.00
12:35 am 00:35 Mostly Cloudy 66 18.7 62 16.9 89 89 Calm 30.13 1020 10 16 0.00 0.00
12:55 am 00:55 Partly Cloudy 65 18.6 63 17 90 90 NE 5 7 30.13 1020 10 16 0.00 0.00
1:15 am 01:15 Mostly Cloudy 65 18.6 63 17.1 91 91 NNE 5 7 30.15 1021 10 16 0.00 0.00
1:35 am 01:35 Mostly Cloudy 65 18.4 63 17 92 92 NNE 3 6 30.14 1021 10 16 0.00 0.00
1:55 am 01:55 Partly Cloudy 65 18.3 63 17 92 92 N 8 13 30.15 1021 10 16 0.00 0.00
2:15 am 02:15 Mostly Cloudy 65 18.4 63 17 92 92 NNE 8 13 30.15 1021 10 16 0.00 0.00
2:35 am 02:35 Mostly Cloudy 65 18.6 62 16.8 89 89 NE 7 11 30.15 1021 10 16 0.00 0.00
2:55 am 02:55 Mostly Cloudy 65 18.5 62 16.8 90 90 NNE 8 13 30.15 1021 10 16 0.00 0.00
3:15 am 03:15 Cloudy 65 18.4 62 16.9 91 91 NE 7 11 30.16 1021 10 16 0.00 0.00
3:35 am 03:35 Cloudy 65 18.5 63 17 91 91 NNE 7 11 30.17 1022 10 16 0.00 0.00
3:55 am 03:55 Cloudy 65 18.5 63 17 91 91 NNE 7 11 30.16 1021 10 16 0.00 0.00
4:15 am 04:15 Cloudy 65 18.6 63 17.1 91 91 NNE 8 13 30.16 1021 10 16 0.00 0.00
4:35 am 04:35 Cloudy 65 18.6 63 17.1 91 91 NNE 8 13 30.17 1022 10 16 0.00 0.00
4:55 am 04:55 Cloudy 66 18.7 63 17 90 90 NNE 10 17 30.17 1022 10 16 0.00 0.00
5:15 am 05:15 Cloudy 66 18.8 62 16.9 89 89 NNE 10 17 30.18 1022 10 16 0.00 0.00
5:35 am 05:35 Cloudy 66 18.8 62 16.7 88 88 NNE 13 20 30.19 1022 10 16 0.00 0.00
5:50 am 05:50 Cloudy 66 19 63 17 88 88 NNW 13 20 30.19 1022 10 16 0.00 0.00
6:50 am 06:50 Cloudy 66 19 61 16 83 83 NNE 7 11 30.22 1023 10 16 0.00 0.00
7:50 am 07:50 Cloudy 66 19 61 16 83 83 NE 8 13 30.24 1024 10 16 0.00 0.00
8:30 am 08:30 Cloudy 66 19 61 16 83 83 NNE 9 15 30.25 1024 10 16 0.00 0.00
8:50 am 08:50 Cloudy 66 19 54 12 64 64 NE 16 26 30.25 1024 10 16 0.00 0.00
9:50 am 09:50 Cloudy 66 19 55 13 68 68 NE 14 22 30.27 1025 10 16 0.00 0.00
10:50 am 10:50 Cloudy 70 21 57 14 64 64 E 13 20 30.27 1025 10 16 0.00 0.00
11:48 am 11:48 Mostly Sunny 72 22 59 15 65 65 E 13 20 30.27 1025 10 16 0.00 0.00
12:55 pm 12:55 Mostly Sunny 73 23 59 15 61 61 ENE 8 13 30.25 1024 10 16 0.00 0.00
1:50 pm 13:50 Partly Cloudy 75 24 59 15 57 57 NE 10 17 30.23 1024 10 16 0.00 0.00
2:45 pm 14:45 Cloudy 77 25 59 15 54 54 ENE 10 17 30.22 1023 10 16 0.00 0.00
3:45 pm 15:45 Mostly Cloudy 79 26 59 15 51 51 NE 12 19 30.21 1023 10 16 0.00 0.00
4:45 pm 16:45 Partly Cloudy 79 26 55 13 45 45 N 8 13 30.19 1022 10 16 0.00 0.00
5:48 pm 17:48 Mostly Sunny 77 25 54 12 44 44 NNE 13 20 30.19 1022 10 16 0.00 0.00
6:51 pm 18:51 Mostly Sunny 75 24 54 12 47 47 NNE 8 13 30.19 1022 10 16 0.00 0.00
7:51 pm 19:51 Mostly Clear 72 22 52 11 50 50 NE 5 7 30.20 1023 10 16 0.00 0.00
8:50 pm 20:50 Mostly Clear 70 21 52 11 53 53 Calm 30.21 1023 10 16 0.00 0.00
9:53 pm 21:53 Mostly Clear 66 19 52 11 60 60 Calm 30.23 1024 10 16 0.00 0.00
10:15 pm 22:15 Clear 65 18.5 52 11.2 63 63 NE 6 9 30.23 1024 10 16 0.00 0.00
10:35 pm 22:35 Clear 65 18.3 51 10.8 62 62 NE 8 13 30.23 1024 10 16 0.00 0.00
10:55 pm 22:55 Clear 64 18 51 10.5 62 62 NE 6 9 30.24 1024 10 16 0.00 0.00
11:15 pm 23:15 Clear 64 17.6 51 10.3 62 62 NE 7 11 30.23 1024 10 16 0.00 0.00
11:35 pm 23:35 Clear 63 17.4 50 10.1 62 62 NE 7 11 30.23 1024 10 16 0.00 0.00
11:55 pm 23:55 Clear 63 17 50 9.9 63 63 NE 8 13 30.23 1024 10 16 0.00 0.00

Powered by AerisWeather